Liberia, Costa Rica

7:44 PM CST on July 05, 2015 (GMT -0600)
Daniel Oduber Quiros International | | Change Station
CLOSE
Current Station
Airport
Location: Liberia,
Elevation: 262 ft
Nearby Weather Stations

Elev 262 ft 10.59 °N, 85.54 °W | Updated 44 minutes ago

Clear
Clear
84 °F
Feels Like 87 °F
N
17
Wind Variable Wind from East

Today
High -- | Low -- °F
--% Chance of Precip.
Yesterday
High -- | Low -- °F
Precip. -- in
5:25 AM 6:08 PM
Waning Gibbous, 80% visible
Pressure 29.82 in
Visibility -9999.0 miles
Clouds
Heat Index 87 °F
Dew Point 68 °F
Humidity 58%
Rainfall 0.00 in
Snow Depth Not available.
UV Not available.
Pollen Not available.
Air Quality Not available.
Flu Activity Not available.
METAR MRLB 060100Z 10015KT CAVOK 29/20 A2982

More Conditions Fewer Conditions

Pressure 29.82 in
Visibility -9999.0 miles
Clouds
Heat Index 87 °F
Dew Point 68 °F
Humidity 58%
Rainfall 0.00 in
Snow Depth Not available.
UV Not available.
Pollen Not available.
Air Quality Not available.
Flu Activity Not available.
METAR MRLB 060100Z 10015KT CAVOK 29/20 A2982

More Conditions Fewer Conditions

10-Day Weather Forecast

×

Almanac

Astronomy

Jul. 05, 2015 Rise Set
Actual Time
Civil Twilight
Nautical Twilight
Astronomical Twilight
Moon
Length of Visible Light
Length of Day
Tomorrow will be .
, % of the Moon is Illuminated

Today's Extremes

Country Highs Country Lows

Community

WunderPhotos

Upload Photos

1,835,443 photos uploaded!

WunderBlogs® & News

Nearby

Air Quality

  Air Quality AQ Index Pollutant
Not available.

Snow Depth

Station Depth Elevation

Earthquake Activity

City Distance Mag. Time & Date
Minimum magnitude displayed is 2.5.

Coastal Water Temperatures

Place Temperature

Stations

Nearby Weather Stations

Station Location Temp. Windchill Dew Point Humidity Wind Precip. Elev Updated Type